Flag for Germany Weather for the Past 2 Weeks in Frankfurt an der Oder, Brandenburg, Germany

Now
48 °F

Overcast.


Feels Like: 42 °F
Forecast: 37 / 47 °F
Wind: 15 mph from South

Location: Berlin-Schoenefeld

Current Time: Feb 9, 2016 at 3:34:59 PM

Latest Report: Feb 9, 2016 at 2:50 PM


Visibility: N/A

Pressure: 29.30 "Hg

Humidity: 62%

Dew point: 36 °F

Location of Frankfurt an der OderLocation

Historic Weather in Frankfurt an der Oder — Graph

°F

Frankfurt an der Oder Temperature Yesterday

Maximum temperature yesterday: 52 °F (at 3:20 PM)
Minimum temperature yesterday: 41 °F (at 3:50 AM)
Average temperature yesterday: 46 °F

High & Low Weather Summary for the Past Weeks

 TemperatureHumidityPressure
High54 °F (Jan 27, 11:50 AM)100% (Jan 25, 1:20 PM)30.27 "Hg (Jan 25, 1:20 PM)
Low30 °F (Feb 5, 2:50 AM)47% (Feb 2, 1:20 PM)29.30 "Hg (Feb 8, 5:50 PM)
Average44 °F79%29.89 "Hg
* Reported Jan 25 1:20 PM — Feb 9 1:50 PM, Frankfurt an der Oder, Weather by CustomWeather, © 2016

Note: Actual official high and low records may vary slightly from our data, if they occured in-between our weather recording intervals... More about our weather records

Advertising

Frankfurt an der Oder Weather History for the Previous 24 Hours

 ConditionsComfort  
Time TempWeatherWind HumidityBarometerVisibility
1:50 PM
Tue, Feb 9
48 °FPartly sunny.12 mph62%29.33 "HgN/A
1:20 PM48 °FPartly sunny.14 mph62%29.36 "HgN/A
12:50 PM48 °FPartly sunny.15 mph62%29.36 "HgN/A
12:20 PM48 °FBroken clouds.23 mph62%29.39 "HgN/A
11:20 AM48 °FPartly sunny.23 mph62%29.42 "HgN/A
10:50 AM48 °FPartly sunny.21 mph58%29.45 "HgN/A
10:20 AM48 °FSunny.21 mph58%29.45 "Hg10 mi
9:50 AM46 °FSunny.21 mph62%29.42 "Hg10 mi
9:20 AM46 °FSunny.20 mph62%29.42 "Hg10 mi
8:50 AM45 °FSunny.16 mph66%29.42 "Hg10 mi
8:20 AM45 °FSunny.16 mph61%29.45 "Hg10 mi
7:50 AM45 °FSunny.21 mph61%29.45 "Hg10 mi
7:20 AM46 °FClear.18 mph57%29.42 "Hg10 mi
6:50 AM46 °FClear.23 mph57%29.42 "Hg10 mi
6:20 AM46 °FClear.22 mph57%29.42 "Hg10 mi
5:50 AM46 °FClear.22 mph57%29.39 "Hg10 mi
5:20 AM46 °FPassing clouds.24 mph62%29.39 "HgN/A
4:50 AM46 °FPassing clouds.23 mph62%29.39 "HgN/A
4:20 AM46 °FPassing clouds.26 mph62%29.39 "HgN/A
3:50 AM46 °FPassing clouds.24 mph62%29.39 "HgN/A
3:20 AM45 °FLight rain. Partly cloudy.23 mph66%29.39 "HgN/A
2:50 AM45 °FClear.22 mph66%29.39 "Hg10 mi
2:20 AM45 °FPassing clouds.21 mph66%29.39 "HgN/A
1:50 AM45 °FClear.20 mph66%29.39 "Hg10 mi
1:20 AM45 °FClear.21 mph66%29.39 "Hg10 mi
12:50 AM45 °FClear.21 mph66%29.39 "Hg10 mi
12:20 AM45 °FPassing clouds.22 mph71%29.39 "HgN/A
11:50 PM
Mon, Feb 8
45 °FClear.21 mph71%29.39 "Hg10 mi
11:20 PM45 °FClear.20 mph71%29.39 "Hg10 mi
10:50 PM45 °FClear.21 mph71%29.39 "Hg10 mi
10:20 PM45 °FClear.17 mph76%29.39 "Hg10 mi
9:50 PM45 °FClear.17 mph76%29.36 "Hg10 mi
9:20 PM45 °FClear.14 mph76%29.36 "Hg10 mi
8:50 PM45 °FClear.15 mph76%29.36 "Hg10 mi
8:20 PM45 °FClear.17 mph76%29.36 "Hg10 mi
7:50 PM45 °FClear.17 mph76%29.36 "Hg10 mi
7:20 PM45 °FClear.20 mph76%29.36 "Hg10 mi
6:50 PM46 °FClear.22 mph76%29.33 "Hg10 mi
6:20 PM46 °FPassing clouds.13 mph76%29.33 "HgN/A
5:50 PM46 °FLight rain. Partly cloudy.16 mph82%29.30 "HgN/A
5:20 PM48 °FPassing clouds.13 mph76%29.33 "HgN/A
4:50 PM50 °FBroken clouds.18 mph71%29.33 "HgN/A
4:20 PM50 °FLight rain. Partly sunny.22 mph71%29.33 "HgN/A
3:50 PM52 °FLight rain. Partly sunny.21 mph62%29.33 "HgN/A
3:20 PM52 °FLight rain. Partly sunny.16 mph62%29.33 "HgN/A
Weather by CustomWeather, © 2016

See weather overviewHow to use our weather pages